Orbital Elements
Epoch 2024 Oct. 17.0 TT = JDT 2460600.5
T 2025 July 13.05116 TT Rudenko
q 5.0925905 (2000.0) P Q
z -0.0000173 Peri. 103.31233 -0.16984724 -0.95225792
+/-0.0000006 Node 15.03247 -0.61287325 -0.09951842
e 1.0000882 Incl. 102.01299 +0.77171128 -0.28861902
>From 83 observations 2022 Sept. 23-2024 Aug. 11, mean residual 0".3.
|